Погода в Новодружеске

Украина / Луганская область     48°57′49″N   38°21′07″E
темп.,
°C
ветер,
м/с
пор.,
м/с
влажн.,
%
обл.,
%
осадки,
мм/ч
давл.,
гПа
погр.,
м
5 декабря, вс
вс523:00+1всв4786100 0.6 1014543
02:00+1всв4888100 0.6 1013498
05:000св51089100 0.1 1012497
08:000св51087100 0.1 1013457
11:00+1св4683100 0.0 1013574
14:00+2св4677100 0.0 1014540
17:00+2св3578100 0.0 1016443
20:00+2всв3480100 0.0 1016351
6 декабря, пн
пн623:00+2всв2382100 0.0 1017251
02:00+2в2384100 0.0 1018261
05:00+2вюв2386100 0.0 1018302
08:00+2юв3488100 0.0 1019308
11:00+3ююв3484100 0.0 1019480
14:00+4ю3581100 0.0 1019529
17:00+2юв249398 0.0 1020172
20:00+2вюв3796100 0.0 1020226
7 декабря, вт
вт723:00+3юв41193100 0.0 1019316
02:00+4юв41191100 0.0 1018325
05:00+5юв41295100 0.5 1017344
08:00+5юв31193100 0.6 1017326
11:00+7юв41084100 0.1 1016308
14:00+7вюв4981100 0.1 1015313
17:00+5вюв41188100 0.0 1014258
20:00+6вюв41285100 0.0 1013326
8 декабря, ср
ср823:00+5вюв41186100 0.0 1012310
02:00+5вюв41088100 0.0 1011287
05:00+5вюв51187100 0.0 1010318
08:00+4вюв51190100 0.0 1010375
11:00+5юв5987100 0.0 1010424
14:00+7вюв51084100 0.0 1009384
17:00+6вюв41192100 0.0 1010315
20:00+6вюв3891100 0.0 1009197
9 декабря, чт
чт923:00+6вюв41090100 0.0 1010239
02:00+6вюв2487100 0.0 101092
05:00+5юв379025 0.0 1010167
08:00+7ююв3992100 0.0 1011412
11:00+8ю41090100 0.1 1011525
14:00+7ю4992100 1.1 1012439
17:00+7юз51095100 1.3 1013498
20:00+7юз5989100 2.1 1015441